www.pogodaiklimat.ru

Погода и климат >> Архив погоды >> Боливия >> Cobija


ПОГОДА в Cobija

  • Прогноз погоды в Cobija
  • Монитор погоды в Cobija
  • Климат города

АРХИВ ПОГОДЫ в Cobija

Время (UTC), дата Ветер
(напр.,м/с)
 
Видим.   Явления Облачность Т
(С)
Тd
(С)
f
(%)
Тe
(С)
Тes
(С)
Комфортность P
(гПа)
Po
(гПа)
Тmin
(С)
Tmax
(С)
R
(мм)
R24
(мм)
S
(см)
12 15.04 ЮВ 2 20 км 9/9 240 м
[Sc Ac As]
+23.3 +21.4 89 +31 +32 очень
душно
1016.3 989.3 +22.5 0.2
15 15.04 Ю 7 20 км 8/8 450 м
[Cu hum Ac trans]
+26.8 +22.4 77 +35 +36 очень
душно
1017.0 990.3
18 15.04 Ю 4 20 км 5/5 700 м
[Cu med, cong]
+30.4 +23.1 65 +41 +46 опасность
перегрева
1014.9 988.6
21 15.04 ЮВ 2 20 км 3/3 750 м
[Cu med, cong]
+29.8 +22.5 65 +39 +41 очень
душно
1012.9 986.6 +30.8
12 16.04 Ю 4 20 км 8/8 180 м
[Sc]
+23.1 +21.2 89 +31 +31 очень
душно
1017.3 990.3 +21.1
15 16.04 Ю 5 20 км 8/8 500 м
[Cu hum]
+26.2 +21.2 74 +33 +35 очень
душно
1018.2 991.4
18 16.04 ЮВ 2 20 км 8/8 700 м
[Cu med, cong]
+28.5 +21.5 66 +36 +40 очень
душно
1016.4 989.9
21 16.04 В 2 20 км 3/3 750 м
[Cu med, cong]
+29.2 +22.2 66 +38 +40 очень
душно
1012.5 986.2 +30.5
12 17.04 Ю 2 20 км 1/0
[Ci fib]
+22.8 +21.6 93 +30 +33 очень
душно
1015.1 988.1 +20.7
15 17.04 Ю 2 20 км 8/8 700 м
[Cu med, cong Ci fib]
+28.3 +22.3 70 +37 +40 очень
душно
1015.6 989.1
18 17.04 Ю 3 20 км 6/6 750 м
[Cu med, cong]
+30.2 +22.4 63 +39 +45 очень
душно
1013.1 986.8
21 17.04 Ю 2 20 км 3/3 750 м
[Cu med, cong]
+31.2 +22.5 60 +41 +43 опасность
перегрева
1009.5 983.4 +32.4
12 18.04 штиль 0 20 км 1/0 2000 м
[Ac trans]
+24.4 +22.5 89 +32 +35 очень
душно
1015.4 988.5 +20.5
15 18.04 Ю 3 20 км 6/6 600 м
[Cu hum]
+29.9 +22.4 64 +39 +44 очень
душно
1015.4 989.1
18 18.04 В 2 20 км 5/5 800 м
[Cu med, cong]
+32.5 +22.6 56 +42 +51 опасность
перегрева
1012.6 986.6
21 18.04 В 4 20 км 3/3 800 м
[Cu med, cong Ci fib]
+31.8 +23.1 60 +42 +43 опасность
перегрева
1009.6 983.6 +32.8
12 19.04 ЮВ 2 20 км 5/1 600 м
[Cu hum Ac trans Ci]
+24.6 +22.1 86 +32 +33 очень
душно
1015.7 988.9 +22.6
15 19.04 ЮВ 2 20 км 5/5 800 м
[Cu med, cong Ci]
+29.9 +23.8 70 +41 +49 опасность
перегрева
1015.2 988.9
18 19.04 ЮВ 3 20 км 6/6 800 м
[Cu med, cong]
+32.3 +24.1 62 +44 +50 опасность
перегрева
1012.5 986.5
21 19.04 Ю 4 20 км 4/3 800 м
[Cu med, cong Ci sp]
+31.0 +23.1 63 +41 +43 опасность
перегрева
1009.6 983.5 +32.5
12 20.04 Ю 2 20 км 8/0 2000 м
[Ac trans]
+23.5 +22.8 96 +31 +32 очень
душно
1014.6 987.7 +22.0
15 20.04 штиль 0 20 км 6/1 500 м
[Cu med, cong Ac trans]
+30.0 +24.6 73 +43 +55 опасность
перегрева
1014.7 988.4
18 20.04 С 3 20 км 8/5 800 м
[Cu med, cong Ci sp]
+30.7 +23.4 65 +41 +48 опасность
перегрева
1011.3 985.1
21 20.04 СЗ 3 20 км 8/3 800 м
[Cb cap Ac As Ci ing]
+29.5 +24.6 75 +42 +43 опасность
перегрева
1009.3 983.1 +32.4
12 21.04 штиль 0 2000 м дымка {туман} 9/4 90 м
[St Ac As]
+23.7 +23.2 97 +32 +32 очень
душно
1014.1 987.2 +22.7
15 21.04 СЗ 3 20 км 8/4 450 м
[Cu hum Ac trans]
+28.7 +24.1 76 +40 +45 очень
душно
1014.9 988.5
18 21.04 СВ 2 10 км осадки на расстоянии 9/8 750 м
[Cb cap Ci ing]
+31.3 +24.0 65 +43 +46 опасность
перегрева
1011.2 985.1
21 21.04 С 2 10 км осадки на расстоянии 10/3 750 м
[Cb cap Cs]
+28.8 +23.9 75 +40 +41 очень
душно
1009.5 983.2 +31.9

 

Местоположение метеостанции Cobija (Боливия): широта -11.03 долгота -68.78 высота над уровнем моря 235 м.

В архиве по умолчанию представлена погода в Cobija за последнюю неделю. Архивные данные за месяц целиком и за предыдущие месяцы, начиная с января 2011 года, Вы можете получить, выбрав интересующий диапазон дат из раскрывающегося списка и нажав кнопку "Ввод!".


*Определитесь, кто Вы:
робот инопланетянин человек

Внимание! Время в таблицах - всемирное. Для получения местного времени необходимо прибавить поправку, которая в Cobija равна -4 ч.

Смотрите также архив погоды в соседних городах и на ближайших метеорологических станциях:

Погода в Epitaciolandia (Бразилия) (6 км)
Погода в Rio Branco (Бразилия) (136 км)
Погода в Rio Branco (Бразилия) (157 км)
Погода в Puerto Maldonado (Перу) (181 км)
Погода в Parque Estadual Chan (Бразилия) (223 км)
Погода в Riberalta (Боливия) (292 км)
Погода в Boca do Acre (Бразилия) (296 км)
Погода в Feijo (Бразилия) (364 км)
Погода в Tarauaca (Бразилия) (385 км)
Погода в Reyes (Боливия) (395 км)

Пояснения к столбцам:

Ветер - указаны скорость ветра в м/с - средняя за 10 мин, порывы в срок и между сроками (в фигурных скобках) и направление, откуда дует ветер: С - северный, СВ - северо-восточный, В - восточный, ЮВ - юго-восточный, Ю - южный, ЮЗ - юго-западный, З - западный, СЗ - северо-западный.
Видимость - горизонтальная дальность видимости в метрах или километрах. При видимости от 1 до 10 км при отсутствии осадков обычно наблюдается дымка, при ухудшении видимости до 1 км и менее - туман. В сухую погоду видимость может ухудшаться дымом, пылью или мглою.
Явления - указаны атмосферные явления, наблюдавшиеся в срок или в последний час перед сроком; фигурными скобками обозначены явления, наблюдавшиеся между сроками (за 1-3 часа до срока); квадратными скобками обозначены град или гололедные отложения с указанием их диаметра в мм.
Облачность - указаны через наклонную черту общая и нижняя облачность в баллах и высота нижней границы облаков в метрах; квадратными скобками обозначены формы облаков: Ci - перистые, Cs - перисто-слоистые, Cc - перисто-кучевые, Ac - высококучевые, As - высокослоистые, Sc - слоисто-кучевые, Ns - слоисто-дождевые, Cu - кучевые, Cb - кучево-дождевые. Подробнее классификацию облаков см. в Атласе облаков (PDF).
T - Температура воздуха - температура, измеренная на высоте 2 м над землей.
Td - Температура точки росы - температура, при понижении до которой содержащийся в воздухе водяной пар достигнет насыщения.
f - Относительная влажность воздуха - влажноcть воздуха, измеренная на высоте 2 м над землей.
Te - Эффективная температура - температура, которую ощущает одетый по сезону человек в тени. Характеристика душности погоды. При расчете учитывается влияние влажности воздуха и скорости ветра на теплоощущения человека.
Tes - Эффективная температура на солнце - температура, которую ощущает человек, с поправкой на солнечный нагрев. Характеристика знойности погоды. Зависит от высоты солнца над горизонтом, облачности и скорости ветра. Ночью, в пасмурную погоду, а также при ветре 12 м/с и более поправка равна нулю.
P - Атмосферное давление - приведенное к уровню моря атмосферное давление.
Po - Атмосферное давление - измеренное на уровне метеостанции атмосферное давление.
Tmin - Минимальная температура - минимум температуры воздуха на высоте 2 м над землей.
Tmax - Максимальная температура - максимум температуры воздуха на высоте 2 м над землей.
R - Количество осадков - Количество выпавших осадков за период времени, мм. При наведении курсора мыши на число - период времени, за который выпало указанное количество осадков.
R24 - Количество осадков - Количество выпавших осадков за 24 часа, мм.
S - Снежный покров - Высота снежного покрова, см. При наведении курсора мыши на число - состояние снежного покрова и степень покрытия местности в баллах.